Time,TemperatureF,DewpointF,PressureIn,WindDirection,WindDirectionDegrees,WindSpeedMPH,WindSpeedGustMPH,Humidity,HourlyPrecipIn,Conditions,Clouds,dailyrainin,SoftwareType,DateUTC
2013-04-04 00:00:00,64.0,63.1,30.05,SE,145,0.0,0.0,97,0.00,CLR,,0.00,WeatherDisplay:10.37,2013-04-04 04:00:00,
2013-04-04 00:05:00,64.0,63.1,30.04,SE,145,0.0,0.0,97,0.00,CLR,,0.00,WeatherDisplay:10.37,2013-04-04 04:05:00,
2013-04-04 00:10:00,64.0,63.1,30.03,SE,145,1.1,0.0,97,0.00,CLR,,0.00,WeatherDisplay:10.37,2013-04-04 04:10:00,
2013-04-04 00:15:00,64.1,63.2,30.03,SE,145,0.0,0.0,97,0.00,CLR,,0.00,WeatherDisplay:10.37,2013-04-04 04:15:00,
2013-04-04 00:20:00,64.1,63.2,30.03,SE,145,0.0,0.0,97,0.00,CLR,,0.00,WeatherDisplay:10.37,2013-04-04 04:20:00,
2013-04-04 00:25:00,64.2,63.3,30.03,SE,145,0.0,0.0,97,0.00,CLR,,0.00,WeatherDisplay:10.37,2013-04-04 04:25:00,
2013-04-04 00:30:00,64.2,63.3,30.04,SE,145,0.0,0.0,97,0.00,CLR,,0.00,WeatherDisplay:10.37,2013-04-04 04:30:00,
2013-04-04 00:35:00,64.2,63.3,30.05,SE,145,0.0,0.0,97,0.00,CLR,,0.00,WeatherDisplay:10.37,2013-04-04 04:35:00,
2013-04-04 00:40:00,64.3,63.4,30.05,SE,145,0.0,0.0,97,0.00,CLR,,0.00,WeatherDisplay:10.37,2013-04-04 04:40:00,
2013-04-04 00:45:00,64.3,63.4,30.05,SE,145,0.0,0.0,97,0.00,CLR,,0.00,WeatherDisplay:10.37,2013-04-04 04:45:00,
2013-04-04 00:50:00,64.3,63.4,30.05,SE,145,0.0,0.0,97,0.00,CLR,,0.00,WeatherDisplay:10.37,2013-04-04 04:50:00,
2013-04-04 00:55:00,64.3,63.4,30.04,SE,145,0.0,0.0,97,0.00,CLR,,0.00,WeatherDisplay:10.37,2013-04-04 04:55:00,
2013-04-04 01:00:00,64.3,63.4,30.05,SE,145,1.1,0.0,97,0.00,CLR,,0.00,WeatherDisplay:10.37,2013-04-04 05:00:00,
2013-04-04 01:05:00,64.4,63.5,30.04,SE,145,0.0,0.0,97,0.00,CLR,,0.00,WeatherDisplay:10.37,2013-04-04 05:05:00,
2013-04-04 01:10:00,64.4,63.5,30.03,SE,145,0.0,0.0,97,0.00,CLR,,0.00,WeatherDisplay:10.37,2013-04-04 05:10:00,
2013-04-04 01:15:00,64.4,63.5,30.03,SE,145,0.0,0.0,97,0.00,CLR,,0.00,WeatherDisplay:10.37,2013-04-04 05:15:00,
2013-04-04 01:20:00,64.5,63.6,30.03,SE,145,0.0,0.0,97,0.00,CLR,,0.00,WeatherDisplay:10.37,2013-04-04 05:20:00,
2013-04-04 01:25:00,64.5,63.6,30.03,SE,145,0.0,0.0,97,0.00,CLR,,0.00,WeatherDisplay:10.37,2013-04-04 05:25:00,
2013-04-04 01:30:00,64.5,63.6,30.03,SE,145,0.0,0.0,97,0.00,CLR,,0.00,WeatherDisplay:10.37,2013-04-04 05:30:00,
2013-04-04 01:35:00,64.5,63.6,30.03,SE,145,0.0,0.0,97,0.00,CLR,,0.00,WeatherDisplay:10.37,2013-04-04 05:35:00,
2013-04-04 01:40:00,64.6,63.7,30.03,SE,145,0.0,0.0,97,0.00,CLR,,0.00,WeatherDisplay:10.37,2013-04-04 05:40:00,
2013-04-04 01:45:00,64.7,63.8,30.03,SE,145,0.0,0.0,97,0.00,CLR,,0.00,WeatherDisplay:10.37,2013-04-04 05:45:00,
2013-04-04 01:50:00,64.7,63.8,30.03,SE,145,0.0,0.0,97,0.00,CLR,,0.00,WeatherDisplay:10.37,2013-04-04 05:50:00,
2013-04-04 01:55:00,64.7,63.8,30.03,SE,145,0.0,0.0,97,0.00,CLR,,0.00,WeatherDisplay:10.37,2013-04-04 05:55:00,
2013-04-04 02:00:00,64.8,63.9,30.03,SE,145,0.0,0.0,97,0.00,CLR,,0.00,WeatherDisplay:10.37,2013-04-04 06:00:00,
2013-04-04 02:05:00,64.8,63.9,30.02,SE,145,5.0,5.0,97,0.00,CLR,,0.00,WeatherDisplay:10.37,2013-04-04 06:05:00,
2013-04-04 02:10:00,64.9,64.0,30.01,SSE,161,6.9,6.9,97,0.00,CLR,,0.00,WeatherDisplay:10.37,2013-04-04 06:10:00,
2013-04-04 02:15:00,64.9,64.0,30.00,SSE,154,4.0,4.0,97,0.00,CLR,,0.00,WeatherDisplay:10.37,2013-04-04 06:15:00,
2013-04-04 02:20:00,64.9,64.0,30.01,SSE,155,0.0,0.0,97,0.00,CLR,,0.00,WeatherDisplay:10.37,2013-04-04 06:20:00,
2013-04-04 02:25:00,65.0,64.1,30.00,SSE,155,1.1,0.0,97,0.00,CLR,,0.00,WeatherDisplay:10.37,2013-04-04 06:25:00,
2013-04-04 02:30:00,64.9,64.0,30.00,South,175,1.1,1.1,97,0.00,CLR,,0.00,WeatherDisplay:10.37,2013-04-04 06:30:00,
2013-04-04 02:35:00,65.0,64.1,30.00,South,174,1.1,1.1,97,0.00,CLR,,0.00,WeatherDisplay:10.37,2013-04-04 06:35:00,
2013-04-04 02:40:00,65.0,64.1,30.00,SSE,165,5.8,5.8,97,0.00,CLR,,0.00,WeatherDisplay:10.37,2013-04-04 06:40:00,
2013-04-04 02:45:00,65.0,64.1,29.99,SSE,165,1.1,0.0,97,0.00,CLR,,0.00,WeatherDisplay:10.37,2013-04-04 06:45:00,
2013-04-04 02:50:00,65.1,64.2,29.99,SSE,162,3.5,3.5,97,0.00,CLR,,0.00,WeatherDisplay:10.37,2013-04-04 06:50:00,
2013-04-04 02:55:00,65.1,64.2,29.99,SSE,159,0.0,0.0,97,0.00,CLR,,0.00,WeatherDisplay:10.37,2013-04-04 06:55:00,
2013-04-04 03:00:00,65.1,64.2,29.99,SSE,168,3.5,3.5,97,0.00,CLR,,0.00,WeatherDisplay:10.37,2013-04-04 07:00:00,
2013-04-04 03:05:00,65.1,64.2,29.98,SSE,163,0.0,0.0,97,0.00,CLR,,0.00,WeatherDisplay:10.37,2013-04-04 07:05:00,
2013-04-04 03:10:00,65.1,64.2,29.98,South,173,1.1,1.1,97,0.00,CLR,,0.00,WeatherDisplay:10.37,2013-04-04 07:10:00,
2013-04-04 03:15:00,65.1,64.2,29.98,South,173,0.0,0.0,97,0.00,CLR,,0.00,WeatherDisplay:10.37,2013-04-04 07:15:00,
2013-04-04 03:20:00,65.0,64.1,29.98,SE,135,8.1,8.1,97,0.00,CLR,,0.00,WeatherDisplay:10.37,2013-04-04 07:20:00,
2013-04-04 03:25:00,65.0,64.1,29.98,South,175,3.5,3.5,97,0.00,CLR,,0.00,WeatherDisplay:10.37,2013-04-04 07:25:00,
2013-04-04 03:30:00,64.9,64.0,29.98,SSE,153,3.5,3.5,97,0.00,CLR,,0.00,WeatherDisplay:10.37,2013-04-04 07:30:00,
2013-04-04 03:35:00,64.8,63.6,29.98,SSE,161,2.3,0.0,96,0.00,CLR,,0.00,WeatherDisplay:10.37,2013-04-04 07:35:00,
2013-04-04 03:40:00,64.8,63.6,29.97,SSE,162,1.1,1.1,96,0.00,CLR,,0.00,WeatherDisplay:10.37,2013-04-04 07:40:00,
2013-04-04 03:45:00,64.7,63.8,29.97,SSE,161,0.0,0.0,97,0.00,CLR,,0.00,WeatherDisplay:10.37,2013-04-04 07:45:00,
2013-04-04 03:50:00,64.7,63.8,29.97,SSE,161,0.0,0.0,97,0.00,CLR,,0.00,WeatherDisplay:10.37,2013-04-04 07:50:00,
2013-04-04 03:55:00,64.7,63.8,29.97,SSE,161,0.0,0.1,97,0.00,CLR,,0.00,WeatherDisplay:10.37,2013-04-04 07:55:00,
2013-04-04 04:00:00,64.7,63.8,29.97,SSE,162,0.0,0.0,97,0.00,CLR,,0.00,WeatherDisplay:10.37,2013-04-04 08:00:00,
2013-04-04 04:05:00,64.7,63.8,29.97,SSE,161,0.0,0.0,97,0.00,CLR,,0.00,WeatherDisplay:10.37,2013-04-04 08:05:00,
2013-04-04 04:10:00,64.8,63.9,29.97,SSE,162,0.0,0.0,97,0.00,CLR,,0.00,WeatherDisplay:10.37,2013-04-04 08:10:00,
2013-04-04 04:15:00,64.8,63.9,29.97,SSE,161,1.1,1.1,97,0.00,CLR,,0.00,WeatherDisplay:10.37,2013-04-04 08:15:00,
2013-04-04 04:20:00,64.9,64.0,29.97,SSE,162,0.0,0.0,97,0.00,CLR,,0.00,WeatherDisplay:10.37,2013-04-04 08:20:00,
2013-04-04 04:25:00,64.9,64.0,29.96,SSE,162,0.0,0.0,97,0.00,CLR,,0.00,WeatherDisplay:10.37,2013-04-04 08:25:00,
2013-04-04 04:30:00,64.9,64.0,29.96,SSE,161,0.0,0.0,97,0.00,CLR,,0.00,WeatherDisplay:10.37,2013-04-04 08:30:00,
2013-04-04 04:35:00,64.9,64.0,29.96,SSE,161,0.0,0.0,97,0.00,CLR,,0.00,WeatherDisplay:10.37,2013-04-04 08:35:00,
2013-04-04 04:40:00,64.9,64.0,29.96,SSE,161,0.0,0.0,97,0.00,CLR,,0.00,WeatherDisplay:10.37,2013-04-04 08:40:00,
2013-04-04 04:45:00,64.9,64.0,29.95,SSE,161,0.0,0.0,97,0.00,CLR,,0.00,WeatherDisplay:10.37,2013-04-04 08:45:00,
2013-04-04 04:51:00,64.9,64.0,29.94,SSE,162,0.0,0.0,97,0.00,CLR,,0.00,WeatherDisplay:10.37,2013-04-04 08:51:00,
2013-04-04 04:56:00,64.9,64.0,29.95,SSE,162,0.0,0.0,97,0.00,CLR,,0.00,WeatherDisplay:10.37,2013-04-04 08:56:00,
2013-04-04 05:01:00,64.9,64.0,29.95,SSE,161,0.0,0.0,97,0.00,CLR,,0.00,WeatherDisplay:10.37,2013-04-04 09:01:00,
2013-04-04 05:06:00,64.9,64.0,29.95,SSE,161,0.0,0.0,97,0.00,CLR,,0.00,WeatherDisplay:10.37,2013-04-04 09:06:00,
2013-04-04 05:11:00,64.9,64.0,29.95,SSE,161,0.0,0.0,97,0.00,CLR,,0.00,WeatherDisplay:10.37,2013-04-04 09:11:00,
2013-04-04 05:16:00,64.9,64.0,29.95,SSE,162,0.0,0.0,97,0.00,CLR,,0.00,WeatherDisplay:10.37,2013-04-04 09:16:00,
2013-04-04 05:21:00,64.9,64.0,29.95,SSE,162,0.0,0.0,97,0.00,CLR,,0.00,WeatherDisplay:10.37,2013-04-04 09:21:00,
2013-04-04 05:26:00,65.0,64.1,29.94,SSE,162,0.0,0.0,97,0.00,CLR,,0.00,WeatherDisplay:10.37,2013-04-04 09:26:00,
2013-04-04 05:31:00,65.0,64.1,29.94,SSE,162,0.0,0.0,97,0.00,CLR,,0.00,WeatherDisplay:10.37,2013-04-04 09:31:00,
2013-04-04 05:36:00,65.0,64.1,29.94,SSE,162,0.0,0.0,97,0.00,CLR,,0.00,WeatherDisplay:10.37,2013-04-04 09:36:00,
2013-04-04 05:41:00,65.0,64.4,29.94,SSE,162,0.0,0.0,98,0.00,CLR,,0.00,WeatherDisplay:10.37,2013-04-04 09:41:00,
2013-04-04 05:47:00,65.1,64.5,29.94,SSE,162,0.0,0.0,98,0.00,CLR,,0.00,WeatherDisplay:10.37,2013-04-04 09:47:00,
2013-04-04 05:52:00,65.2,64.6,29.95,SSE,161,0.0,0.0,98,0.00,CLR,,0.00,WeatherDisplay:10.37,2013-04-04 09:52:00,
2013-04-04 05:57:00,65.2,64.6,29.95,SSE,162,0.0,0.0,98,0.00,CLR,,0.00,WeatherDisplay:10.37,2013-04-04 09:57:00,
2013-04-04 06:02:00,65.2,64.6,29.95,SSE,162,0.0,0.0,98,0.00,CLR,,0.00,WeatherDisplay:10.37,2013-04-04 10:02:00,
2013-04-04 06:07:00,65.3,64.7,29.95,SSE,161,0.0,0.0,98,0.00,CLR,,0.00,WeatherDisplay:10.37,2013-04-04 10:07:00,
2013-04-04 06:12:00,65.3,64.7,29.95,SSE,161,0.0,0.0,98,0.00,CLR,,0.00,WeatherDisplay:10.37,2013-04-04 10:12:00,
2013-04-04 06:17:00,65.3,64.7,29.95,SSE,161,0.0,0.0,98,0.00,CLR,,0.00,WeatherDisplay:10.37,2013-04-04 10:17:00,
2013-04-04 06:22:00,65.3,64.7,29.95,SSE,161,0.0,0.0,98,0.00,CLR,,0.00,WeatherDisplay:10.37,2013-04-04 10:22:00,
2013-04-04 06:27:00,65.3,64.7,29.95,SSE,161,0.0,0.0,98,0.00,CLR,,0.00,WeatherDisplay:10.37,2013-04-04 10:27:00,
2013-04-04 06:32:00,65.3,64.7,29.96,SSE,161,0.0,0.0,98,0.00,CLR,,0.00,WeatherDisplay:10.37,2013-04-04 10:32:00,
2013-04-04 06:37:00,65.3,64.7,29.95,SSE,161,0.0,0.0,98,0.00,CLR,,0.00,WeatherDisplay:10.37,2013-04-04 10:37:00,
2013-04-04 06:42:00,65.3,64.7,29.96,SSE,161,0.0,0.0,98,0.00,CLR,,0.00,WeatherDisplay:10.37,2013-04-04 10:42:00,
2013-04-04 06:47:00,65.3,64.7,29.95,SSE,162,0.0,0.0,98,0.00,CLR,,0.00,WeatherDisplay:10.37,2013-04-04 10:47:00,
2013-04-04 06:52:00,65.3,64.7,29.95,SSE,161,0.0,0.0,98,0.00,CLR,,0.00,WeatherDisplay:10.37,2013-04-04 10:52:00,
2013-04-04 06:57:00,65.3,64.7,29.95,SSE,161,1.1,0.0,98,0.00,CLR,,0.00,WeatherDisplay:10.37,2013-04-04 10:57:00,
2013-04-04 07:02:00,65.4,64.8,29.95,SSE,162,0.0,0.0,98,0.00,CLR,,0.00,WeatherDisplay:10.37,2013-04-04 11:02:00,
2013-04-04 07:07:00,65.4,64.5,29.95,SSE,162,0.0,0.0,97,0.00,CLR,,0.00,WeatherDisplay:10.37,2013-04-04 11:07:00,
2013-04-04 07:12:00,65.4,64.5,29.95,SSE,161,0.0,0.0,97,0.00,CLR,,0.00,WeatherDisplay:10.37,2013-04-04 11:12:00,
2013-04-04 07:17:00,65.4,64.5,29.95,SSE,161,0.0,0.0,97,0.00,CLR,,0.00,WeatherDisplay:10.37,2013-04-04 11:17:00,
2013-04-04 07:22:00,65.4,64.5,29.95,SSE,162,0.0,0.0,97,0.00,CLR,,0.00,WeatherDisplay:10.37,2013-04-04 11:22:00,
2013-04-04 07:27:00,65.4,64.5,29.95,SSE,161,0.0,0.0,97,0.00,CLR,,0.00,WeatherDisplay:10.37,2013-04-04 11:27:00,
2013-04-04 07:32:00,65.4,64.5,29.95,SSE,161,1.1,0.0,97,0.00,CLR,,0.00,WeatherDisplay:10.37,2013-04-04 11:32:00,
2013-04-04 07:37:00,65.5,64.6,29.95,SSE,161,5.0,5.0,97,0.01,RA,,0.01,WeatherDisplay:10.37,2013-04-04 11:37:00,
2013-04-04 07:42:00,65.6,64.7,29.93,SSE,161,0.0,0.0,97,0.02,RA,,0.02,WeatherDisplay:10.37,2013-04-04 11:42:00,
2013-04-04 07:47:00,65.6,64.7,29.93,SSE,159,2.3,2.3,97,0.02,RA,,0.02,WeatherDisplay:10.37,2013-04-04 11:47:00,
2013-04-04 07:52:00,65.6,65.0,29.93,SSE,159,0.0,0.0,98,0.02,,,0.02,WeatherDisplay:10.37,2013-04-04 11:52:00,
2013-04-04 07:57:00,65.7,65.1,29.94,SSE,159,1.1,1.1,98,0.02,CLR,,0.02,WeatherDisplay:10.37,2013-04-04 11:57:00,
2013-04-04 08:02:00,65.7,65.1,29.94,SSE,159,3.5,3.5,98,0.02,CLR,,0.02,WeatherDisplay:10.37,2013-04-04 12:02:00,
2013-04-04 08:07:00,65.8,65.2,29.94,SSE,159,0.0,0.0,98,0.02,CLR,,0.02,WeatherDisplay:10.37,2013-04-04 12:07:00,
2013-04-04 08:12:00,65.8,65.2,29.93,SSE,159,0.0,0.0,98,0.02,CLR,,0.02,WeatherDisplay:10.37,2013-04-04 12:12:00,
2013-04-04 08:17:00,65.9,65.3,29.93,SSE,159,0.0,0.0,98,0.02,CLR,,0.02,WeatherDisplay:10.37,2013-04-04 12:17:00,
2013-04-04 08:22:00,66.1,65.5,29.94,SSE,159,0.0,0.0,98,0.02,CLR,,0.02,WeatherDisplay:10.37,2013-04-04 12:22:00,
2013-04-04 08:27:00,66.1,65.5,29.94,SSE,159,0.0,0.0,98,0.02,CLR,,0.02,WeatherDisplay:10.37,2013-04-04 12:27:00,
2013-04-04 08:32:00,66.2,65.6,29.93,SSE,159,1.1,1.1,98,0.02,CLR,,0.02,WeatherDisplay:10.37,2013-04-04 12:32:00,
2013-04-04 08:37:00,66.3,65.7,29.94,SSE,159,0.0,0.0,98,0.01,CLR,,0.02,WeatherDisplay:10.37,2013-04-04 12:37:00,
2013-04-04 08:43:00,66.5,65.9,29.94,SSE,159,1.0,0.0,98,0.00,CLR,,0.02,WeatherDisplay:10.37,2013-04-04 12:43:00,
2013-04-04 08:48:00,66.6,66.0,29.94,SSE,159,0.0,0.0,98,0.00,CLR,,0.02,WeatherDisplay:10.37,2013-04-04 12:48:00,
2013-04-04 08:53:00,66.7,66.1,29.94,SSE,159,0.0,0.0,98,0.00,CLR,,0.02,WeatherDisplay:10.37,2013-04-04 12:53:00,
2013-04-04 08:58:00,66.9,66.3,29.94,SSE,159,0.0,0.0,98,0.00,CLR,,0.02,WeatherDisplay:10.37,2013-04-04 12:58:00,
2013-04-04 09:03:00,67.0,66.4,29.94,SSE,159,0.0,0.0,98,0.00,CLR,,0.02,WeatherDisplay:10.37,2013-04-04 13:03:00,
2013-04-04 09:08:00,67.2,66.6,29.94,SSE,159,0.0,0.0,98,0.00,CLR,,0.02,WeatherDisplay:10.37,2013-04-04 13:08:00,
2013-04-04 09:13:00,67.5,66.9,29.93,SSE,159,0.0,0.0,98,0.00,CLR,,0.02,WeatherDisplay:10.37,2013-04-04 13:13:00,
2013-04-04 09:18:00,67.8,67.2,29.94,SSE,159,1.1,0.0,98,0.00,CLR,,0.02,WeatherDisplay:10.37,2013-04-04 13:18:00,
2013-04-04 09:23:00,67.9,67.3,29.94,SSE,159,0.0,0.0,98,0.00,CLR,,0.02,WeatherDisplay:10.37,2013-04-04 13:23:00,
2013-04-04 09:28:00,68.0,67.4,29.94,SSE,156,0.0,0.0,98,0.00,CLR,,0.02,WeatherDisplay:10.37,2013-04-04 13:28:00,
2013-04-04 09:33:00,68.1,67.5,29.93,SSE,156,0.0,0.0,98,0.00,CLR,,0.02,WeatherDisplay:10.37,2013-04-04 13:33:00,
2013-04-04 09:38:00,68.4,67.8,29.93,SSE,156,2.3,2.3,98,0.00,CLR,,0.02,WeatherDisplay:10.37,2013-04-04 13:38:00,
2013-04-04 09:43:00,68.5,67.9,29.93,SSE,156,1.1,1.1,98,0.00,CLR,,0.02,WeatherDisplay:10.37,2013-04-04 13:43:00,
2013-04-04 09:48:00,68.7,68.1,29.93,SSE,156,4.6,4.6,98,0.00,CLR,,0.02,WeatherDisplay:10.37,2013-04-04 13:48:00,
2013-04-04 09:53:00,68.8,68.2,29.93,SSE,160,1.1,1.1,98,0.00,CLR,,0.02,WeatherDisplay:10.37,2013-04-04 13:53:00,
2013-04-04 09:58:00,68.9,68.0,29.93,SSE,161,1.1,1.1,97,0.00,CLR,,0.02,WeatherDisplay:10.37,2013-04-04 13:58:00,
2013-04-04 10:03:00,69.1,68.5,29.93,SSE,161,0.0,0.0,98,0.00,CLR,,0.02,WeatherDisplay:10.37,2013-04-04 14:03:00,
2013-04-04 10:08:00,69.2,68.3,29.94,SSE,168,1.1,0.0,97,0.00,CLR,,0.02,WeatherDisplay:10.37,2013-04-04 14:08:00,
2013-04-04 10:13:00,69.4,68.5,29.93,SSE,168,2.0,2.0,97,0.00,CLR,,0.02,WeatherDisplay:10.37,2013-04-04 14:13:00,
2013-04-04 10:18:00,69.6,68.7,29.93,SSE,168,0.0,0.0,97,0.00,CLR,,0.02,WeatherDisplay:10.37,2013-04-04 14:18:00,
2013-04-04 10:23:00,69.9,69.0,29.94,SSE,168,2.3,2.3,97,0.00,CLR,,0.02,WeatherDisplay:10.37,2013-04-04 14:23:00,
2013-04-04 10:28:00,70.1,69.2,29.94,South,169,0.0,0.0,97,0.00,CLR,,0.02,WeatherDisplay:10.37,2013-04-04 14:28:00,
2013-04-04 10:33:00,70.3,69.1,29.94,SSE,157,2.0,2.0,96,0.00,CLR,,0.02,WeatherDisplay:10.37,2013-04-04 14:33:00,
2013-04-04 10:38:00,70.4,69.2,29.93,SSE,155,8.1,8.1,96,0.00,CLR,,0.02,WeatherDisplay:10.37,2013-04-04 14:38:00,
2013-04-04 10:43:00,70.5,69.3,29.94,SSE,154,1.1,0.0,96,0.00,CLR,,0.02,WeatherDisplay:10.37,2013-04-04 14:43:00,
2013-04-04 10:48:00,70.6,69.1,29.94,SW,229,5.0,5.0,95,0.00,CLR,,0.02,WeatherDisplay:10.37,2013-04-04 14:48:00,
2013-04-04 10:53:00,70.6,69.1,29.94,SSW,207,1.1,1.1,95,0.00,CLR,,0.02,WeatherDisplay:10.37,2013-04-04 14:53:00,
2013-04-04 10:58:00,70.8,69.3,29.93,SE,134,0.0,0.0,95,0.00,CLR,,0.02,WeatherDisplay:10.37,2013-04-04 14:58:00,
2013-04-04 11:03:00,70.9,69.1,29.93,NW,319,1.1,0.0,94,0.00,CLR,,0.02,WeatherDisplay:10.37,2013-04-04 15:03:00,
2013-04-04 11:08:00,71.2,69.4,29.93,SSE,167,2.3,2.3,94,0.00,CLR,,0.02,WeatherDisplay:10.37,2013-04-04 15:08:00,
2013-04-04 11:13:00,71.5,69.7,29.93,SW,218,3.5,0.0,94,0.00,CLR,,0.02,WeatherDisplay:10.37,2013-04-04 15:13:00,
2013-04-04 11:18:00,71.8,70.0,29.93,South,189,1.1,0.0,94,0.00,CLR,,0.02,WeatherDisplay:10.37,2013-04-04 15:18:00,
2013-04-04 11:23:00,72.1,70.0,29.93,SSW,213,1.1,0.0,93,0.00,CLR,,0.02,WeatherDisplay:10.37,2013-04-04 15:23:00,
2013-04-04 11:28:00,72.3,70.2,29.92,South,178,0.0,0.0,93,0.00,CLR,,0.02,WeatherDisplay:10.37,2013-04-04 15:28:00,
2013-04-04 11:33:00,72.6,69.8,29.93,SW,229,1.1,0.0,91,0.00,CLR,,0.02,WeatherDisplay:10.37,2013-04-04 15:33:00,
2013-04-04 11:38:00,72.7,69.9,29.92,SW,235,2.3,2.3,91,0.00,CLR,,0.02,WeatherDisplay:10.37,2013-04-04 15:38:00,
2013-04-04 11:43:00,72.9,69.8,29.92,South,175,0.0,0.0,90,0.00,CLR,,0.02,WeatherDisplay:10.37,2013-04-04 15:43:00,
2013-04-04 11:49:00,73.2,70.1,29.91,WSW,242,1.1,1.1,90,0.00,CLR,,0.02,WeatherDisplay:10.37,2013-04-04 15:49:00,
2013-04-04 11:54:00,73.3,70.2,29.91,WSW,242,0.0,0.0,90,0.00,CLR,,0.02,WeatherDisplay:10.37,2013-04-04 15:54:00,
2013-04-04 12:00:00,73.6,69.8,29.91,WSW,245,4.0,4.0,88,0.00,CLR,,0.02,WeatherDisplay:10.37,2013-04-04 16:00:00,
2013-04-04 12:05:00,73.8,70.4,29.91,SW,236,0.0,0.3,89,0.00,CLR,,0.02,WeatherDisplay:10.37,2013-04-04 16:05:00,
2013-04-04 12:10:00,74.2,70.4,29.91,West,262,1.0,0.0,88,0.00,CLR,,0.02,WeatherDisplay:10.37,2013-04-04 16:10:00,
2013-04-04 12:15:00,74.5,70.7,29.92,WSW,256,3.5,3.5,88,0.00,CLR,,0.02,WeatherDisplay:10.37,2013-04-04 16:15:00,
2013-04-04 12:20:00,74.8,70.3,29.92,West,271,4.0,4.0,86,0.00,CLR,,0.02,WeatherDisplay:10.37,2013-04-04 16:20:00,
2013-04-04 12:25:00,74.9,69.7,29.92,SW,220,3.5,3.5,84,0.00,CLR,,0.02,WeatherDisplay:10.37,2013-04-04 16:25:00,
2013-04-04 12:30:00,75.1,70.3,29.92,SE,140,1.1,0.0,85,0.00,CLR,,0.02,WeatherDisplay:10.37,2013-04-04 16:30:00,
2013-04-04 12:35:00,75.4,69.9,29.92,SW,225,5.0,5.0,83,0.00,CLR,,0.02,WeatherDisplay:10.37,2013-04-04 16:35:00,
2013-04-04 12:40:00,75.6,70.1,29.92,WNW,289,0.0,0.4,83,0.00,CLR,,0.02,WeatherDisplay:10.37,2013-04-04 16:40:00,
2013-04-04 12:45:00,75.8,69.9,29.92,WSW,253,3.5,3.5,82,0.00,CLR,,0.02,WeatherDisplay:10.37,2013-04-04 16:45:00,
2013-04-04 12:50:00,75.9,68.9,29.91,SW,232,6.9,6.9,79,0.00,CLR,,0.02,WeatherDisplay:10.37,2013-04-04 16:50:00,
2013-04-04 12:55:00,75.9,68.9,29.91,SW,223,5.8,5.8,79,0.00,CLR,,0.02,WeatherDisplay:10.37,2013-04-04 16:55:00,
2013-04-04 13:01:00,75.9,68.5,29.90,WSW,250,4.6,4.6,78,0.00,CLR,,0.02,WeatherDisplay:10.37,2013-04-04 17:01:00,
2013-04-04 13:06:00,76.0,69.0,29.90,SW,229,2.3,0.0,79,0.00,CLR,,0.02,WeatherDisplay:10.37,2013-04-04 17:06:00,
2013-04-04 13:11:00,76.1,68.7,29.90,WSW,246,10.4,10.4,78,0.00,CLR,,0.02,WeatherDisplay:10.37,2013-04-04 17:11:00,
2013-04-04 13:16:00,76.2,68.8,29.89,SSW,192,5.8,5.8,78,0.00,CLR,,0.02,WeatherDisplay:10.37,2013-04-04 17:16:00,
2013-04-04 13:21:00,76.4,69.0,29.89,WSW,240,8.1,8.1,78,0.00,CLR,,0.02,WeatherDisplay:10.37,2013-04-04 17:21:00,
2013-04-04 13:26:00,76.4,68.3,29.90,SW,216,3.5,3.5,76,0.00,CLR,,0.02,WeatherDisplay:10.37,2013-04-04 17:26:00,
2013-04-04 13:31:00,76.4,67.9,29.89,South,186,17.3,17.3,75,0.00,CLR,,0.02,WeatherDisplay:10.37,2013-04-04 17:31:00,
2013-04-04 13:36:00,76.6,68.1,29.89,SSE,165,6.9,6.9,75,0.00,CLR,,0.02,WeatherDisplay:10.37,2013-04-04 17:36:00,
2013-04-04 13:41:00,76.6,67.3,29.89,NW,326,10.4,10.4,73,0.00,CLR,,0.02,WeatherDisplay:10.37,2013-04-04 17:41:00,
2013-04-04 13:47:00,76.6,67.7,29.88,West,281,8.1,8.1,74,0.00,CLR,,0.02,WeatherDisplay:10.37,2013-04-04 17:47:00,
2013-04-04 13:52:00,76.7,67.8,29.89,South,172,11.5,11.5,74,0.00,CLR,,0.02,WeatherDisplay:10.37,2013-04-04 17:52:00,
2013-04-04 13:57:00,76.6,67.7,29.89,WSW,238,9.2,9.2,74,0.00,CLR,,0.02,WeatherDisplay:10.37,2013-04-04 17:57:00,
2013-04-04 14:02:00,76.5,68.0,29.89,SSW,207,8.1,8.1,75,0.00,CLR,,0.02,WeatherDisplay:10.37,2013-04-04 18:02:00,
2013-04-04 14:07:00,76.5,68.0,29.89,West,267,4.6,4.6,75,0.00,CLR,,0.02,WeatherDisplay:10.37,2013-04-04 18:07:00,
2013-04-04 14:12:00,76.5,67.6,29.89,South,189,3.5,3.5,74,0.00,CLR,,0.02,WeatherDisplay:10.37,2013-04-04 18:12:00,
2013-04-04 14:17:00,76.4,67.5,29.89,SSW,202,7.0,7.0,74,0.00,CLR,,0.02,WeatherDisplay:10.37,2013-04-04 18:17:00,
2013-04-04 14:22:00,76.2,67.3,29.89,SSW,208,8.1,8.1,74,0.00,CLR,,0.02,WeatherDisplay:10.37,2013-04-04 18:22:00,
2013-04-04 14:27:00,76.1,67.6,29.89,WSW,248,2.3,2.3,75,0.00,CLR,,0.02,WeatherDisplay:10.37,2013-04-04 18:27:00,
2013-04-04 14:32:00,76.0,67.9,29.88,SW,228,3.0,3.0,76,0.00,CLR,,0.02,WeatherDisplay:10.37,2013-04-04 18:32:00,
2013-04-04 14:37:00,75.8,67.7,29.88,South,171,2.3,2.3,76,0.00,CLR,,0.02,WeatherDisplay:10.37,2013-04-04 18:37:00,
2013-04-04 14:42:00,75.7,67.6,29.88,SSE,166,3.5,3.5,76,0.00,CLR,,0.02,WeatherDisplay:10.37,2013-04-04 18:42:00,
2013-04-04 14:48:00,75.7,67.6,29.88,WSW,252,4.6,4.6,76,0.00,CLR,,0.02,WeatherDisplay:10.37,2013-04-04 18:48:00,
2013-04-04 14:53:00,75.7,68.0,29.89,SW,230,2.0,2.0,77,0.00,CLR,,0.02,WeatherDisplay:10.37,2013-04-04 18:53:00,
2013-04-04 14:58:00,75.7,67.6,29.89,SSW,212,3.5,3.5,76,0.00,CLR,,0.02,WeatherDisplay:10.37,2013-04-04 18:58:00,
2013-04-04 15:03:00,75.5,67.4,29.88,West,276,3.5,3.5,76,0.00,CLR,,0.02,WeatherDisplay:10.37,2013-04-04 19:03:00,
2013-04-04 15:08:00,75.5,67.8,29.88,WNW,302,5.0,5.0,77,0.00,CLR,,0.02,WeatherDisplay:10.37,2013-04-04 19:08:00,
2013-04-04 15:13:00,75.5,67.8,29.87,SSW,205,3.5,3.5,77,0.00,CLR,,0.02,WeatherDisplay:10.37,2013-04-04 19:13:00,
2013-04-04 15:18:00,75.5,67.4,29.87,West,270,6.9,6.9,76,0.00,CLR,,0.02,WeatherDisplay:10.37,2013-04-04 19:18:00,
2013-04-04 15:23:00,75.6,67.5,29.87,WNW,286,3.5,3.5,76,0.00,CLR,,0.02,WeatherDisplay:10.37,2013-04-04 19:23:00,
2013-04-04 15:28:00,75.7,67.2,29.86,SSW,205,3.5,3.5,75,0.00,CLR,,0.02,WeatherDisplay:10.37,2013-04-04 19:28:00,
2013-04-04 15:33:00,75.8,67.3,29.86,NE,45,8.1,8.1,75,0.00,CLR,,0.02,WeatherDisplay:10.37,2013-04-04 19:33:00,
2013-04-04 15:38:00,75.8,67.3,29.86,West,276,8.1,8.1,75,0.00,CLR,,0.02,WeatherDisplay:10.37,2013-04-04 19:38:00,
2013-04-04 15:43:00,75.7,66.8,29.86,West,278,11.5,11.5,74,0.00,CLR,,0.02,WeatherDisplay:10.37,2013-04-04 19:43:00,
2013-04-04 15:48:00,75.6,66.7,29.85,SSW,192,8.1,8.1,74,0.00,CLR,,0.02,WeatherDisplay:10.37,2013-04-04 19:48:00,
2013-04-04 15:53:00,75.6,66.7,29.85,WSW,241,3.5,3.5,74,0.00,CLR,,0.02,WeatherDisplay:10.37,2013-04-04 19:53:00,
2013-04-04 15:58:00,75.6,67.1,29.85,WSW,241,3.5,3.5,75,0.00,CLR,,0.02,WeatherDisplay:10.37,2013-04-04 19:58:00,
2013-04-04 16:03:00,75.7,66.8,29.85,SSE,157,8.1,8.1,74,0.00,CLR,,0.02,WeatherDisplay:10.37,2013-04-04 20:03:00,
2013-04-04 16:08:00,75.7,67.2,29.85,SW,229,4.6,4.6,75,0.00,CLR,,0.02,WeatherDisplay:10.37,2013-04-04 20:08:00,
2013-04-04 16:13:00,75.7,67.6,29.85,SE,144,6.9,6.9,76,0.00,CLR,,0.02,WeatherDisplay:10.37,2013-04-04 20:13:00,
2013-04-04 16:18:00,75.6,67.1,29.85,SW,219,10.4,10.4,75,0.00,CLR,,0.02,WeatherDisplay:10.37,2013-04-04 20:18:00,
2013-04-04 16:23:00,75.5,67.0,29.85,SW,235,4.6,4.6,75,0.00,CLR,,0.02,WeatherDisplay:10.37,2013-04-04 20:23:00,
2013-04-04 16:28:00,75.4,67.3,29.85,SW,233,4.6,4.6,76,0.00,CLR,,0.02,WeatherDisplay:10.37,2013-04-04 20:28:00,
2013-04-04 16:33:00,75.3,66.8,29.85,NW,307,10.4,10.4,75,0.00,CLR,,0.02,WeatherDisplay:10.37,2013-04-04 20:33:00,
2013-04-04 16:38:00,75.3,67.2,29.84,SSW,206,4.0,4.0,76,0.00,CLR,,0.02,WeatherDisplay:10.37,2013-04-04 20:38:00,
2013-04-04 16:43:00,75.3,67.2,29.84,SSE,168,5.8,5.8,76,0.00,CLR,,0.02,WeatherDisplay:10.37,2013-04-04 20:43:00,
2013-04-04 16:48:00,75.3,67.2,29.84,WSW,237,4.6,4.6,76,0.00,CLR,,0.02,WeatherDisplay:10.37,2013-04-04 20:48:00,
2013-04-04 16:53:00,75.3,66.8,29.85,WSW,256,8.1,8.1,75,0.00,CLR,,0.02,WeatherDisplay:10.37,2013-04-04 20:53:00,
2013-04-04 16:58:00,75.4,66.9,29.84,WSW,246,2.3,2.3,75,0.00,CLR,,0.02,WeatherDisplay:10.37,2013-04-04 20:58:00,
2013-04-04 17:03:00,75.3,66.8,29.84,SSW,212,2.3,2.3,75,0.00,CLR,,0.02,WeatherDisplay:10.37,2013-04-04 21:03:00,
2013-04-04 17:08:00,75.2,66.7,29.84,SSW,212,2.3,2.3,75,0.00,CLR,,0.02,WeatherDisplay:10.37,2013-04-04 21:08:00,
2013-04-04 17:13:00,75.1,66.6,29.84,SSW,213,6.9,6.9,75,0.00,CLR,,0.02,WeatherDisplay:10.37,2013-04-04 21:13:00,
2013-04-04 17:18:00,75.0,66.9,29.84,SSW,196,3.5,3.5,76,0.00,CLR,,0.02,WeatherDisplay:10.37,2013-04-04 21:18:00,
2013-04-04 17:23:00,74.9,66.4,29.84,WSW,248,9.2,9.2,75,0.00,CLR,,0.02,WeatherDisplay:10.37,2013-04-04 21:23:00,
2013-04-04 17:29:00,74.8,66.0,29.85,South,188,9.2,9.2,74,0.00,CLR,,0.02,WeatherDisplay:10.37,2013-04-04 21:29:00,
2013-04-04 17:34:00,74.6,65.8,29.85,West,267,8.1,8.1,74,0.00,CLR,,0.02,WeatherDisplay:10.37,2013-04-04 21:34:00,
2013-04-04 17:39:00,74.5,66.1,29.85,WSW,239,1.1,1.1,75,0.00,CLR,,0.02,WeatherDisplay:10.37,2013-04-04 21:39:00,
2013-04-04 17:44:00,74.4,66.0,29.85,WSW,257,4.6,0.0,75,0.00,CLR,,0.02,WeatherDisplay:10.37,2013-04-04 21:44:00,
2013-04-04 17:49:00,74.3,66.2,29.85,NW,321,1.1,1.1,76,0.00,CLR,,0.02,WeatherDisplay:10.37,2013-04-04 21:49:00,
2013-04-04 17:54:00,74.3,65.9,29.85,WSW,243,8.1,8.1,75,0.00,CLR,,0.02,WeatherDisplay:10.37,2013-04-04 21:54:00,
2013-04-04 18:00:00,74.2,65.8,29.85,SSW,213,4.6,4.6,75,0.00,CLR,,0.02,WeatherDisplay:10.37,2013-04-04 22:00:00,
2013-04-04 18:05:00,74.0,65.6,29.85,West,263,4.6,4.6,75,0.00,CLR,,0.02,WeatherDisplay:10.37,2013-04-04 22:05:00,
2013-04-04 18:10:00,73.8,65.4,29.85,WSW,248,3.5,3.5,75,0.00,CLR,,0.02,WeatherDisplay:10.37,2013-04-04 22:10:00,
2013-04-04 18:15:00,73.7,65.7,29.85,WSW,246,5.8,5.8,76,0.00,CLR,,0.02,WeatherDisplay:10.37,2013-04-04 22:15:00,
2013-04-04 18:20:00,73.7,65.7,29.85,West,278,4.6,4.6,76,0.00,CLR,,0.02,WeatherDisplay:10.37,2013-04-04 22:20:00,
2013-04-04 18:25:00,73.7,65.7,29.85,WSW,255,6.9,6.9,76,0.00,CLR,,0.02,WeatherDisplay:10.37,2013-04-04 22:25:00,
2013-04-04 18:30:00,73.6,66.0,29.85,SW,232,1.0,7.0,77,0.00,CLR,CLR,0.02,WeatherDisplay:10.37,2013-04-04 22:30:00,
2013-04-04 18:35:00,73.5,65.8,29.85,SW,221,2.3,2.3,77,0.00,CLR,,0.02,WeatherDisplay:10.37,2013-04-04 22:35:00,
2013-04-04 18:40:00,73.5,65.8,29.85,WSW,242,3.5,3.5,77,0.00,CLR,,0.02,WeatherDisplay:10.37,2013-04-04 22:40:00,
2013-04-04 18:45:00,73.5,65.8,29.85,WNW,298,1.1,0.0,77,0.00,CLR,,0.02,WeatherDisplay:10.37,2013-04-04 22:45:00,
2013-04-04 18:50:00,73.5,65.8,29.85,West,278,3.5,3.5,77,0.00,CLR,,0.02,WeatherDisplay:10.37,2013-04-04 22:50:00,
2013-04-04 18:55:00,73.5,65.8,29.85,SSW,197,3.5,3.5,77,0.00,CLR,,0.02,WeatherDisplay:10.37,2013-04-04 22:55:00,
2013-04-04 19:00:00,73.4,65.7,29.85,SW,221,1.0,8.0,77,0.00,CLR,CLR,0.02,WeatherDisplay:10.37,2013-04-04 23:00:00,
2013-04-04 19:05:00,73.2,65.6,29.85,SW,236,8.1,8.1,77,0.00,CLR,,0.02,WeatherDisplay:10.37,2013-04-04 23:05:00,
2013-04-04 19:10:00,73.0,65.7,29.85,WSW,245,7.0,7.0,78,0.00,CLR,,0.02,WeatherDisplay:10.37,2013-04-04 23:10:00,
2013-04-04 19:15:00,72.8,65.9,29.85,SW,228,1.0,0.0,79,0.00,CLR,,0.02,WeatherDisplay:10.37,2013-04-04 23:15:00,
2013-04-04 19:20:00,72.7,65.8,29.84,South,177,5.8,5.8,79,0.00,CLR,,0.02,WeatherDisplay:10.37,2013-04-04 23:20:00,
2013-04-04 19:25:00,72.5,65.6,29.83,WNW,298,3.5,3.5,79,0.00,CLR,,0.02,WeatherDisplay:10.37,2013-04-04 23:25:00,
2013-04-04 19:30:00,72.4,65.5,29.84,WNW,284,1.0,6.0,79,0.00,CLR,CLR,0.02,WeatherDisplay:10.37,2013-04-04 23:30:00,
2013-04-04 19:35:00,72.3,65.8,29.84,WSW,248,1.0,1.0,80,0.00,CLR,,0.02,WeatherDisplay:10.37,2013-04-04 23:35:00,
2013-04-04 19:40:00,72.1,65.6,29.84,SSW,209,0.0,0.0,80,0.00,CLR,,0.02,WeatherDisplay:10.37,2013-04-04 23:40:00,
2013-04-04 19:46:00,72.0,65.8,29.84,WSW,252,2.3,2.3,81,0.00,CLR,,0.02,WeatherDisplay:10.37,2013-04-04 23:46:00,
2013-04-04 19:51:00,71.9,65.8,29.84,WSW,244,2.0,2.0,81,0.00,CLR,,0.02,WeatherDisplay:10.37,2013-04-04 23:51:00,
2013-04-04 19:56:00,71.7,65.6,29.84,WSW,246,2.0,2.0,81,0.00,CLR,,0.02,WeatherDisplay:10.37,2013-04-04 23:56:00,
2013-04-04 20:01:00,71.6,65.5,29.84,West,261,3.0,3.0,81,0.00,CLR,,0.02,WeatherDisplay:10.37,2013-04-05 00:01:00,
2013-04-04 20:06:00,71.5,65.7,29.84,WSW,248,0.0,0.0,82,0.00,CLR,,0.02,WeatherDisplay:10.37,2013-04-05 00:06:00,
2013-04-04 20:11:00,71.5,65.7,29.85,WSW,248,0.0,0.0,82,0.00,CLR,,0.02,WeatherDisplay:10.37,2013-04-05 00:11:00,
2013-04-04 20:16:00,71.4,65.6,29.85,WSW,252,1.1,1.1,82,0.00,CLR,,0.02,WeatherDisplay:10.37,2013-04-05 00:16:00,
2013-04-04 20:21:00,71.3,65.9,29.86,WSW,252,0.0,0.0,83,0.00,CLR,,0.02,WeatherDisplay:10.37,2013-04-05 00:21:00,
2013-04-04 20:26:00,71.2,66.1,29.86,WSW,252,0.0,0.0,84,0.00,CLR,,0.02,WeatherDisplay:10.37,2013-04-05 00:26:00,
2013-04-04 20:31:00,71.1,65.7,29.86,West,279,1.1,1.1,83,0.00,CLR,,0.02,WeatherDisplay:10.37,2013-04-05 00:31:00,
2013-04-04 20:36:00,71.0,65.6,29.86,West,276,3.5,3.5,83,0.00,CLR,,0.02,WeatherDisplay:10.37,2013-04-05 00:36:00,
2013-04-04 20:41:00,70.9,65.5,29.86,South,189,0.0,0.0,83,0.00,CLR,,0.02,WeatherDisplay:10.37,2013-04-05 00:41:00,
2013-04-04 20:46:00,70.8,65.7,29.86,South,189,0.0,0.0,84,0.00,CLR,,0.02,WeatherDisplay:10.37,2013-04-05 00:46:00,
2013-04-04 20:51:00,70.6,65.5,29.86,South,189,0.0,0.0,84,0.00,CLR,,0.02,WeatherDisplay:10.37,2013-04-05 00:51:00,
2013-04-04 20:56:00,70.4,65.3,29.87,South,182,0.0,0.0,84,0.00,CLR,,0.02,WeatherDisplay:10.37,2013-04-05 00:56:00,
2013-04-04 21:01:00,70.3,65.2,29.87,SW,232,2.3,2.3,84,0.00,CLR,,0.02,WeatherDisplay:10.37,2013-04-05 01:01:00,
2013-04-04 21:06:00,70.2,65.1,29.87,SW,236,3.5,3.5,84,0.00,CLR,,0.02,WeatherDisplay:10.37,2013-04-05 01:06:00,
2013-04-04 21:11:00,70.1,65.4,29.87,WSW,238,0.0,0.2,85,0.00,CLR,,0.02,WeatherDisplay:10.37,2013-04-05 01:11:00,
2013-04-04 21:16:00,70.0,65.3,29.87,WSW,254,0.0,0.2,85,0.00,CLR,,0.02,WeatherDisplay:10.37,2013-04-05 01:16:00,
2013-04-04 21:21:00,69.9,65.2,29.87,SW,217,1.1,1.1,85,0.00,CLR,,0.02,WeatherDisplay:10.37,2013-04-05 01:21:00,
2013-04-04 21:26:00,69.8,65.1,29.88,WSW,254,1.1,0.0,85,0.00,CLR,,0.02,WeatherDisplay:10.37,2013-04-05 01:26:00,
2013-04-04 21:31:00,69.8,65.1,29.87,WSW,250,0.0,0.0,85,0.00,CLR,,0.02,WeatherDisplay:10.37,2013-04-05 01:31:00,
2013-04-04 21:36:00,69.7,65.0,29.88,SW,224,0.0,0.0,85,0.00,CLR,,0.02,WeatherDisplay:10.37,2013-04-05 01:36:00,
2013-04-04 21:41:00,69.6,64.9,29.88,WSW,239,0.0,0.0,85,0.00,CLR,,0.02,WeatherDisplay:10.37,2013-04-05 01:41:00,
2013-04-04 21:46:00,69.4,65.0,29.88,WSW,239,0.0,0.0,86,0.00,CLR,,0.02,WeatherDisplay:10.37,2013-04-05 01:46:00,
2013-04-04 21:51:00,69.3,64.9,29.88,WSW,239,0.0,0.0,86,0.00,CLR,,0.02,WeatherDisplay:10.37,2013-04-05 01:51:00,
2013-04-04 21:56:00,69.2,64.8,29.88,WSW,239,0.0,0.0,86,0.00,CLR,,0.02,WeatherDisplay:10.37,2013-04-05 01:56:00,
2013-04-04 22:01:00,69.1,65.1,29.88,WSW,239,0.0,0.0,87,0.00,CLR,,0.02,WeatherDisplay:10.37,2013-04-05 02:01:00,
2013-04-04 22:06:00,69.0,65.0,29.88,WSW,239,0.0,0.0,87,0.00,CLR,,0.02,WeatherDisplay:10.37,2013-04-05 02:06:00,
2013-04-04 22:11:00,68.8,64.8,29.89,WSW,239,0.0,0.0,87,0.00,CLR,,0.02,WeatherDisplay:10.37,2013-04-05 02:11:00,
2013-04-04 22:16:00,68.7,65.0,29.89,WSW,239,0.0,0.0,88,0.00,CLR,,0.02,WeatherDisplay:10.37,2013-04-05 02:16:00,
2013-04-04 22:21:00,68.5,64.8,29.89,WSW,239,0.0,0.0,88,0.00,CLR,,0.02,WeatherDisplay:10.37,2013-04-05 02:21:00,
2013-04-04 22:26:00,68.4,64.7,29.89,WSW,239,0.0,0.0,88,0.00,CLR,,0.02,WeatherDisplay:10.37,2013-04-05 02:26:00,
2013-04-04 22:31:00,68.3,64.6,29.89,WSW,239,0.0,0.0,88,0.00,CLR,,0.02,WeatherDisplay:10.37,2013-04-05 02:31:00,
2013-04-04 22:37:00,68.2,64.8,29.89,WSW,239,0.0,0.0,89,0.00,CLR,,0.02,WeatherDisplay:10.37,2013-04-05 02:37:00,
2013-04-04 22:42:00,68.1,64.7,29.89,WSW,239,0.0,0.0,89,0.00,CLR,,0.02,WeatherDisplay:10.37,2013-04-05 02:42:00,
2013-04-04 22:47:00,68.0,64.6,29.89,WSW,239,0.0,0.0,89,0.00,CLR,,0.02,WeatherDisplay:10.37,2013-04-05 02:47:00,
2013-04-04 22:52:00,67.8,64.4,29.89,WSW,239,0.0,0.0,89,0.00,CLR,,0.02,WeatherDisplay:10.37,2013-04-05 02:52:00,
2013-04-04 22:57:00,67.7,64.3,29.89,WSW,239,0.0,0.0,89,0.00,CLR,,0.02,WeatherDisplay:10.37,2013-04-05 02:57:00,
2013-04-04 23:02:00,67.6,64.6,29.89,WSW,239,0.0,0.0,90,0.00,CLR,,0.02,WeatherDisplay:10.37,2013-04-05 03:02:00,
2013-04-04 23:07:00,67.4,64.4,29.88,WSW,239,0.0,0.0,90,0.00,CLR,,0.02,WeatherDisplay:10.37,2013-04-05 03:07:00,
2013-04-04 23:12:00,67.3,64.3,29.88,WSW,239,0.0,0.0,90,0.00,CLR,,0.02,WeatherDisplay:10.37,2013-04-05 03:12:00,
2013-04-04 23:17:00,67.2,64.2,29.88,WSW,239,0.0,0.0,90,0.00,CLR,,0.02,WeatherDisplay:10.37,2013-04-05 03:17:00,
2013-04-04 23:22:00,67.1,64.4,29.88,WSW,239,0.0,0.0,91,0.00,CLR,,0.02,WeatherDisplay:10.37,2013-04-05 03:22:00,
2013-04-04 23:27:00,66.9,64.2,29.88,WSW,239,0.0,0.0,91,0.00,CLR,,0.02,WeatherDisplay:10.37,2013-04-05 03:27:00,
2013-04-04 23:32:00,66.9,64.2,29.88,WSW,239,0.0,0.0,91,0.00,CLR,,0.02,WeatherDisplay:10.37,2013-04-05 03:32:00,
2013-04-04 23:37:00,66.8,64.1,29.88,WSW,239,0.0,0.0,91,0.00,CLR,,0.02,WeatherDisplay:10.37,2013-04-05 03:37:00,
2013-04-04 23:42:00,66.7,64.0,29.88,WSW,239,0.0,0.0,91,0.00,CLR,,0.02,WeatherDisplay:10.37,2013-04-05 03:42:00,
2013-04-04 23:47:00,66.7,64.3,29.88,WSW,239,0.0,0.0,92,0.00,CLR,,0.02,WeatherDisplay:10.37,2013-04-05 03:47:00,
2013-04-04 23:52:00,66.7,64.0,29.87,WSW,239,0.0,0.0,91,0.00,CLR,,0.02,WeatherDisplay:10.37,2013-04-05 03:52:00,
2013-04-04 23:57:00,66.7,64.3,29.87,WSW,239,0.0,0.0,92,0.00,CLR,,0.02,WeatherDisplay:10.37,2013-04-05 03:57:00,